This is the latest recevied weather packets stored in our database for station/object KD4EED. If no packets are shown the sender has not sent any weather packets the latest 10 day(s).
| Time | Temp. | Humidity | Pressure | Rain* | Wind** | Luminosity | Snow |
|---|---|---|---|---|---|---|---|
| 1777768539 | 21.11° C | 62% | 1008.2 hPa | - | - | 161 W/m² | - |
| 1777768237 | 21.67° C | 62% | 1008.2 hPa | - | - | 152 W/m² | - |
| 1777767934 | 22.22° C | 60% | 1008.2 hPa | - | - | 161 W/m² | - |
| 1777767630 | 22.22° C | 60% | 1008.3 hPa | - | - | 270 W/m² | - |
| 1777767327 | 22.22° C | 60% | 1008.3 hPa | - | - | 290 W/m² | - |
| 1777767024 | 22.22° C | 60% | 1008.2 hPa | - | - | 246 W/m² | - |
| 1777766721 | 22.22° C | 59% | 1008.2 hPa | - | - | 328 W/m² | - |
| 1777766418 | 22.22° C | 59% | 1008.4 hPa | - | - | 345 W/m² | - |
| 1777766115 | 22.22° C | 60% | 1008.2 hPa | - | - | 367 W/m² | - |
| 1777765813 | 22.22° C | 58% | 1008.4 hPa | - | - | 382 W/m² | - |
| 1777765509 | 22.22° C | 60% | 1008.3 hPa | - | - | 397 W/m² | - |
| 1777765206 | 22.22° C | 59% | 1008.4 hPa | - | - | 414 W/m² | - |
| 1777764906 | 22.22° C | 60% | 1008.3 hPa | - | - | 437 W/m² | - |
| 1777764604 | 22.78° C | 59% | 1008.2 hPa | - | - | 450 W/m² | - |
| 1777764300 | 22.22° C | 60% | 1008.5 hPa | - | - | 463 W/m² | - |
| 1777763997 | 21.67° C | 61% | 1008.5 hPa | - | - | 467 W/m² | - |
| 1777763694 | 21.67° C | 61% | 1008.5 hPa | - | - | 497 W/m² | - |
| 1777763392 | 21.11° C | 63% | 1008.4 hPa | - | - | 519 W/m² | - |
| 1777763090 | 21.11° C | 64% | 1008.4 hPa | - | - | 531 W/m² | - |
| 1777762788 | 21.11° C | 63% | 1008.5 hPa | - | - | 536 W/m² | - |
| 1777762484 | 21.11° C | 63% | 1008.8 hPa | - | - | 402 W/m² | - |
| 1777762181 | 21.11° C | 64% | 1008.9 hPa | - | - | 413 W/m² | - |
| 1777761877 | 20.56° C | 65% | 1008.9 hPa | - | - | 493 W/m² | - |
| 1777761574 | 20.56° C | 65% | 1009.1 hPa | - | - | 343 W/m² | - |
| 1777761272 | 20.56° C | 66% | 1009.4 hPa | - | - | 319 W/m² | - |
* Rain since midnight (hover to see other rain measurements)
** Current wind speed in m/s (hover to see current wind gust speed)